Weather in Sadovyy

Russia / Chelyabinsk Oblast     55°10′34″N   61°11′13″E
temp.,
°C
wind,
m/s
gust,
m/s
humid.,
%
clouds,
%
prec.,
mm/h
press.,
hPa
HPBL,
m
28 june, tue
tue2823:00+14sw5117481 0.0 1006397
02:00+12sw51095100 4.9 1004363
05:00+12w3895100 9.4 1003445
08:00+10nnw61089100 0.1 1006584
11:00+11nnw6863100 0.1 10061442
14:00+11nnw475473 0.1 10071615
17:00+10nnw6856100 0.1 10081683
20:00+8nw597097 0.3 10091292
29 june, wed
wed2923:00+6nw5118010 0.3 1009749
02:00+5nw51282100 0.0 1009548
05:00+4nw6128485 0.0 1009594
08:00+7nw71172100 0.0 1008988
11:00+9nw71275100 0.0 10081350
14:00+11nw51169100 0.0 10081492
17:00+16nw410516 0.0 10071728
20:00+15nw116290 0.0 100612
30 june, thu
thu3023:00+12wnw51170100 0.0 1007405
02:00+9wnw4117860 0.0 1007297
05:00+9wnw41177100 0.0 1006303
08:00+12nw586657 0.0 1006440
11:00+16nw564615 0.0 10061620
14:00+17n354096 0.0 10062283
17:00+17nnw224280 0.0 10061846
20:00+15ene125784 0.1 100767
1 july, fri
fri123:00+12nnw2380100 0.6 100868
02:00+9nne4883100 0.1 1009378
05:00+7nne3584100 0.4 1010321
08:00+9nnw357212 0.2 1010451
11:00+13n4462100 0.2 10101163
14:00+13n5565100 0.1 10101189
17:00+11n4570100 0.1 1010711
20:00+11sw1173100 0.0 1010133
2 july, sat
sat223:00+10wsw2375100 0.0 100977
02:00+9wnw258099 0.0 1008137
05:00+8nnw388650 0.0 1009199
08:00+10nnw3778100 0.0 1009268
11:00+14nnw4666100 0.0 1008550
14:00+17nw555211 0.2 10081561
17:00+18nnw254999 0.2 10071311
20:00+16wsw22625 0.0 100739